Weather in Erofej Pavlovich

Russia / Amur Oblast     53°57′35″N   121°57′16″E
temp.,
°C
wind,
m/s
gust,
m/s
humid.,
%
clouds,
%
prec.,
mm/h
press.,
hPa
HPBL,
m
15 may, sat
sat1500:00+4n2880100 0.0 1007475
03:00+3nw2588100 0.0 1007305
06:00+4nw3781100 0.0 1005746
09:00+7nw4116689 0.0 10041352
12:00+12nnw7113926 0.0 10022037
15:00+14nnw7103170 0.0 10012410
18:00+13nnw48375 0.0 10012221
21:00+6nnw22630 0.0 100412
16 may, sun
sun1600:00+3nw22720 0.0 100518
03:00+2nw22720 0.0 100516
06:00+3nw11660 0.0 100326
09:00+11sw23415 0.0 1000587
12:00+16wsw48295 0.0 9972418
15:00+17w6112360 0.0 9943428
18:00+17wnw4122811 0.0 9943443
21:00+8w5986100 1.2 997477
17 may, mon
mon1700:00+5w311891 2.3 999351
03:00+2wnw49827 2.4 1001309
06:00+1wnw4106830 0.0 1002424
09:00+5nnw464923 0.0 10041260
12:00+9wnw482692 0.0 10022871
15:00+12nw4821100 0.0 10003287
18:00+11nw3428100 0.0 9992490
21:00+5ene225433 0.0 100039
18 may, tue
tue1800:00+4ene2359100 0.0 100178
03:00+2ne1272100 0.3 100085
06:00+1nne2594100 2.4 1000288
09:00+2n4786100 8.3 1001841
12:00+5n356797 0.4 10021614
15:00+6nw356694 2.1 10021234
18:00+5nnw36729 1.1 1004795
21:00−1nw1195100 1.1 100611
19 may, wed
wed1900:00−4nnw229663 0.0 100920
03:00−4nnw119433 0.0 100917
06:00−2n11875 0.0 100935
09:00+5ssw126647 0.0 1007559
12:00+9s2342100 0.0 10051558
15:00+9ssw1637100 0.0 10031804
18:00+6s3476100 0.2 1002815
21:00+3ne2598100 1.4 1003472